Regional Weather Roundup
Issued by NWS Albany, NY

Home | Current Version | Previous Version | Graphics & Text | Print | Product List | Glossary Off
Versions: 1 2 3 4 5 6 7 8 9 10 11 12 13 14 15 16 17 18 19 20 21 22 23 24 25 26 27 28

000
ASUS41 KALY 280210
RWRALY

NEW YORK STATE HOURLY WEATHER ROUNDUP
NATIONAL WEATHER SERVICE ALBANY NY
1000 PM EDT MON MAR 27 2017

NOTE: "FAIR" INDICATES FEW OR NO CLOUDS BELOW 12,000 FEET WITH NO
SIGNIFICANT WEATHER AND/OR NO OBSTRUCTIONS TO VISIBILITY.

NYZ032-033-038>043-046>054-057>066-NYZ062>081-082-084-280300-
EAST


CITY           SKY/WX    TMP DP  RH WIND       PRES   REMARKS
ALBANY         CLOUDY    42  37  82 CALM      30.00S
GLENS FALLS    FOG       36  35  96 CALM      29.99R VSB 1/4
POUGHKEEPSIE   PTCLDY    37  36  96 CALM      30.00S
NEWBURGH       PTCLDY    41  41 100 CALM      30.01R
MONTGOMERY     CLOUDY    38  36  92 CALM      29.99R FOG
WHITE PLAINS   PTCLDY    41  39  93 CALM      30.00R
ISLIP          MOCLDY    44  43  96 NE3       30.01R FOG
NEW YORK CITY  MOCLDY    46  42  86 E7        30.01S
CENTRAL PARK   PTCLDY    48  45  89 CALM      30.03S
$$

NYZ005>009-017-018-044>046-055-056-280300-
CENTRAL


CITY           SKY/WX    TMP DP  RH WIND       PRES   REMARKS
FULTON         CLOUDY    42  39  89 SE3       29.93S
SYRACUSE       CLOUDY    41  38  89 E3        29.94R
ROME           CLOUDY    39  38  96 SE6       29.97S WCI  35
ELMIRA         CLOUDY    50  47  89 CALM      29.93R
BINGHAMTON     CLOUDY    49  45  86 S3        29.94S
MONTICELLO     PTCLDY    39  37  93 CALM      30.00R
$$

NYZ026>034-041>043-087-280300-
NORTH


CITY           SKY/WX    TMP DP  RH WIND       PRES   REMARKS
WATERTOWN      CLOUDY    48  47  96 S3        29.91S
FORT DRUM      NOT AVBL
MASSENA        FOG       37  37 100 CALM      29.93S VSB 1/2
SARANAC LAKE   FOG       37  37 100 CALM      29.90S VSB 1/2
PLATTSBURGH    CLOUDY    37  36  96 SE5       29.94S WCI  33
$$

NYZ001>004-010>016-019>021-085-280300-
WEST


CITY           SKY/WX    TMP DP  RH WIND       PRES   REMARKS
NIAGARA FALLS  CLOUDY    48  44  86 S5        29.91S
BUFFALO        CLOUDY    47  44  90 S7        29.92S
DUNKIRK        PTCLDY    43  42  97 S5        29.94S
JAMESTOWN      CLOUDY    48  45  87 CALM      29.93S
WELLSVILLE     MOCLDY    50  48  93 N5        29.95R
ROCHESTER      PTCLDY    52  46  80 SW12      29.92S
PENN YAN       CLOUDY    51  46  83 CALM      29.94R
$$

             KEY
       WCI = WIND CHILL INDEX
       VSB = VISIBILITY
       HX  = HEAT INDEX
$$




USA.gov is the U.S. government's official web portal to all federal, state and local government web resources and services.